Date,TemperatureHighF,TemperatureAvgF,TemperatureLowF,DewpointHighF,DewpointAvgF,DewpointLowF,HumidityHigh,HumidityAvg,HumidityLow,PressureMaxIn,PressureMinIn,WindSpeedMaxMPH,WindSpeedAvgMPH,GustSpeedMaxMPH,PrecipitationSumIn
2013-1-1,14,8,-4,-100,-100,-100,0,0,100,0.00,40.00,0,-999,0,0.00
2013-1-2,2,-5,-16,-100,-100,-100,0,0,100,0.00,40.00,0,-999,0,0.00
2013-1-3,16,-1,-22,-100,-100,-100,0,0,100,0.00,40.00,0,-999,0,0.00
2013-1-4,21,-2,-20,-100,-100,-100,0,0,100,0.00,40.00,0,-999,0,0.00
2013-1-5,19,-2,-21,-100,-100,-100,0,0,100,0.00,40.00,0,-999,0,0.00
2013-1-6,23,7,-10,-100,-100,-100,0,0,100,0.00,40.00,0,-999,0,0.00
2013-1-7,20,15,7,-100,-100,-100,0,0,100,0.00,40.00,0,-999,0,0.00
2013-1-8,26,23,19,-100,-100,-100,0,0,100,0.00,40.00,0,-999,0,0.01
2013-1-9,35,30,26,-100,-100,-100,0,0,100,0.00,40.00,0,-999,0,0.00
2013-1-10,33,28,15,-100,-100,-100,0,0,100,0.00,40.00,0,-999,0,0.02
2013-1-11,14,6,-1,-100,-100,-100,0,0,100,0.00,40.00,0,-999,0,0.01
2013-1-12,8,-2,-22,-100,-100,-100,0,0,100,0.00,40.00,0,-999,0,0.00
2013-1-13,3,-17,-33,-100,-100,-100,0,0,100,0.00,40.00,0,-999,0,0.00
2013-1-14,2,-9,-27,-100,-100,-100,0,0,100,0.00,40.00,0,-999,0,0.01
2013-1-15,10,3,-7,-100,-100,-100,0,0,100,0.00,40.00,0,-999,0,0.00
2013-1-16,17,11,6,-100,-100,-100,0,0,100,0.00,40.00,0,-999,0,0.00
2013-1-17,21,9,3,-100,-100,-100,0,0,100,0.00,40.00,0,-999,0,0.00
2013-1-18,26,15,2,-100,-100,-100,0,0,100,0.00,40.00,0,-999,0,0.00
2013-1-19,27,7,-12,-100,-100,-100,0,0,100,0.00,40.00,0,-999,0,0.00
2013-1-20,28,15,-6,-100,-100,-100,0,0,100,0.00,40.00,0,-999,0,0.00
2013-1-21,28,6,-12,-100,-100,-100,0,0,100,0.00,40.00,0,-999,0,0.00
2013-1-22,33,7,-16,-100,-100,-100,0,0,100,0.00,40.00,0,-999,0,0.00
2013-1-23,8,3,-2,-100,-100,-100,0,0,100,0.00,40.00,0,-999,0,0.00
2013-1-27,29,25,21,-100,-100,-100,0,0,100,0.00,40.00,0,-999,0,0.00
2013-1-29,22,18,15,-100,-100,-100,0,0,100,0.00,40.00,0,-999,0,0.00
2013-1-30,18,17,15,-100,-100,-100,0,0,100,0.00,40.00,0,-999,0,0.00
2013-1-31,28,28,28,-100,-100,-100,0,0,100,0.00,40.00,0,-999,0,0.00
2013-2-2,30,26,24,-100,-100,-100,0,0,100,0.00,40.00,0,-999,0,0.00
2013-2-3,29,27,23,-100,-100,-100,0,0,100,0.00,40.00,0,-999,0,0.00
2013-2-4,27,25,23,-100,-100,-100,0,0,100,0.00,40.00,0,-999,0,0.00
2013-2-5,34,30,27,-100,-100,-100,0,0,100,0.00,40.00,0,-999,0,0.00
2013-2-6,27,27,27,-100,-100,-100,0,0,100,0.00,40.00,0,-999,0,0.00
2013-2-7,32,27,23,-100,-100,-100,0,0,100,0.00,40.00,0,-999,0,0.00
2013-2-8,31,22,14,-100,-100,-100,0,0,100,0.00,40.00,0,-999,0,0.00
2013-2-9,34,23,16,-100,-100,-100,0,0,100,0.00,40.00,0,-999,0,0.00
2013-2-10,25,19,11,-100,-100,-100,0,0,100,0.00,40.00,0,-999,0,0.00
2013-2-11,23,12,-13,-100,-100,-100,0,0,100,0.00,40.00,0,-999,0,0.00
2013-2-12,24,17,9,-100,-100,-100,0,0,100,0.00,40.00,0,-999,0,0.00
2013-2-13,25,25,24,-100,-100,-100,0,0,100,0.00,40.00,0,-999,0,0.00
2013-2-14,25,19,3,-100,-100,-100,0,0,100,0.00,40.00,0,-999,0,0.00
2013-2-15,27,26,24,-100,-100,-100,0,0,100,0.00,40.00,0,-999,0,0.00
2013-2-16,30,28,26,-100,-100,-100,0,0,100,0.00,40.00,0,-999,0,0.00
2013-2-17,28,28,28,-100,-100,-100,0,0,100,0.00,40.00,0,-999,0,0.00
2013-2-18,28,22,8,-100,-100,-100,0,0,100,0.00,40.00,0,-999,0,0.00
2013-2-19,30,7,-3,-100,-100,-100,0,0,100,0.00,40.00,0,-999,0,0.00
2013-2-20,35,24,11,-100,-100,-100,0,0,100,0.00,40.00,0,-999,0,0.00
2013-2-21,27,15,-4,-100,-100,-100,0,0,100,0.00,40.00,0,-999,0,0.00
2013-2-22,23,21,18,-100,-100,-100,0,0,100,0.00,40.00,0,-999,0,0.00
2013-2-26,26,24,23,-100,-100,-100,0,0,100,0.00,40.00,0,-999,0,0.00
2013-2-27,24,19,12,-100,-100,-100,0,0,100,0.00,40.00,0,-999,0,0.00
2013-2-28,27,19,11,-100,-100,-100,0,0,100,0.00,40.00,0,-999,0,0.00
2013-3-1,30,28,23,-100,-100,-100,0,0,100,0.00,40.00,0,-999,0,0.00
2013-3-2,38,34,29,-100,-100,-100,0,0,100,0.00,40.00,0,-999,0,0.00
2013-3-3,35,30,11,-100,-100,-100,0,0,100,0.00,40.00,0,-999,0,0.01
2013-3-4,24,8,-8,-100,-100,-100,0,0,100,0.00,40.00,0,-999,0,0.01
2013-3-5,33,12,-10,-100,-100,-100,0,0,100,0.00,40.00,0,-999,0,0.00
2013-3-6,34,23,4,-100,-100,-100,0,0,100,0.00,40.00,0,-999,0,0.02
2013-3-7,36,30,24,-100,-100,-100,0,0,100,0.00,40.00,0,-999,0,0.02
2013-3-8,39,32,20,-100,-100,-100,0,0,100,0.00,40.00,0,-999,0,0.01
2013-3-9,38,24,5,-100,-100,-100,0,0,100,0.00,40.00,0,-999,0,0.01
2013-3-10,38,28,-2,-100,-100,-100,0,0,100,0.00,40.00,0,-999,0,0.00
2013-3-11,41,32,23,-100,-100,-100,0,0,100,0.00,40.00,0,-999,0,0.00
2013-3-12,39,24,6,-100,-100,-100,0,0,100,0.00,40.00,0,-999,0,0.00
2013-3-13,45,39,35,-100,-100,-100,0,0,100,0.00,40.00,0,-999,0,0.00
2013-3-14,53,39,26,-100,-100,-100,0,0,100,0.00,40.00,0,-999,0,0.00
2013-3-15,50,42,34,-100,-100,-100,0,0,100,0.00,40.00,0,-999,0,0.00
2013-3-16,44,36,25,-100,-100,-100,0,0,100,0.00,40.00,0,-999,0,0.00
2013-3-17,36,27,14,-100,-100,-100,0,0,100,0.00,40.00,0,-999,0,0.01
2013-3-18,30,21,5,-100,-100,-100,0,0,100,0.00,40.00,0,-999,0,0.00
2013-3-19,37,24,9,-100,-100,-100,0,0,100,0.00,40.00,0,-999,0,0.00
2013-3-20,36,28,16,-100,-100,-100,0,0,100,0.00,40.00,0,-999,0,0.00
2013-3-21,34,28,19,-100,-100,-100,0,0,100,0.00,40.00,0,-999,0,0.01
2013-3-22,28,19,4,-100,-100,-100,0,0,100,0.00,40.00,0,-999,0,0.00
2013-3-23,30,10,-15,-100,-100,-100,0,0,100,0.00,40.00,0,-999,0,0.01
2013-3-24,30,7,-19,-100,-100,-100,0,0,100,0.00,40.00,0,-999,0,0.01
2013-3-25,35,11,-18,-100,-100,-100,0,0,100,0.00,40.00,0,-999,0,0.00
2013-3-26,45,25,7,-100,-100,-100,0,0,100,0.00,40.00,0,-999,0,0.00
2013-3-27,44,34,28,-100,-100,-100,0,0,100,0.00,40.00,0,-999,0,0.00
2013-3-28,50,34,16,-100,-100,-100,0,0,100,0.00,40.00,0,-999,0,0.00
2013-3-29,48,36,25,-100,-100,-100,0,0,100,0.00,40.00,0,-999,0,0.00
2013-3-30,48,38,29,-100,-100,-100,0,0,100,0.00,40.00,0,-999,0,0.00
2013-3-31,54,36,19,-100,-100,-100,0,0,100,0.00,40.00,0,-999,0,0.00
2013-4-1,56,37,20,-100,-100,-100,0,0,100,0.00,40.00,0,-999,0,0.00
2013-4-2,57,39,18,-100,-100,-100,0,0,100,0.00,40.00,0,-999,0,0.00
2013-4-3,54,41,31,-100,-100,-100,0,0,100,0.00,40.00,0,-999,0,0.00
2013-4-4,54,40,28,-100,-100,-100,0,0,100,0.00,40.00,0,-999,0,0.00
2013-4-5,41,38,35,-100,-100,-100,0,0,100,0.00,40.00,0,-999,0,0.01
2013-4-6,39,36,32,-100,-100,-100,0,0,100,0.00,40.00,0,-999,0,0.01
2013-4-7,37,35,33,-100,-100,-100,0,0,100,0.00,40.00,0,-999,0,0.02
2013-4-8,33,29,21,-100,-100,-100,0,0,100,0.00,40.00,0,-999,0,0.02
2013-4-9,38,30,21,-100,-100,-100,0,0,100,0.00,40.00,0,-999,0,0.01
2013-4-10,44,18,2,-100,-100,-100,0,0,100,0.00,40.00,0,-999,0,0.01
2013-4-11,48,40,26,-100,-100,-100,0,0,100,0.00,40.00,0,-999,0,0.00
2013-4-12,45,34,18,-100,-100,-100,0,0,100,0.00,40.00,0,-999,0,0.00
2013-4-13,39,35,25,-100,-100,-100,0,0,100,0.00,40.00,0,-999,0,0.00
2013-4-14,35,27,19,-100,-100,-100,0,0,100,0.00,40.00,0,-999,0,0.00
2013-4-15,36,26,14,-100,-100,-100,0,0,100,0.00,40.00,0,-999,0,0.00
2013-4-16,32,22,12,-100,-100,-100,0,0,100,0.00,40.00,0,-999,0,0.00
2013-4-17,32,21,6,-100,-100,-100,0,0,100,0.00,40.00,0,-999,0,0.00
2013-4-18,41,22,-2,-100,-100,-100,0,0,100,0.00,40.00,0,-999,0,0.00
2013-4-19,38,34,29,-100,-100,-100,0,0,100,0.00,40.00,0,-999,0,0.04
2013-4-20,47,37,31,-100,-100,-100,0,0,100,0.00,40.00,0,-999,0,0.00
2013-4-21,44,35,29,-100,-100,-100,0,0,100,0.00,40.00,0,-999,0,0.00
2013-4-22,35,27,18,-100,-100,-100,0,0,100,0.00,40.00,0,-999,0,0.01
2013-4-23,41,21,1,-100,-100,-100,0,0,100,0.00,40.00,0,-999,0,0.00
2013-4-24,46,42,36,-100,-100,-100,0,0,100,0.00,40.00,0,-999,0,0.00
2013-4-25,52,40,30,-100,-100,-100,0,0,100,0.00,40.00,0,-999,0,0.00
2013-4-26,57,40,21,-100,-100,-100,0,0,100,0.00,40.00,0,-999,0,0.00
2013-4-27,58,44,29,-100,-100,-100,0,0,100,0.00,40.00,0,-999,0,0.00
2013-4-28,52,42,35,-100,-100,-100,0,0,100,0.00,40.00,0,-999,0,0.00
2013-4-29,48,40,31,-100,-100,-100,0,0,100,0.00,40.00,0,-999,0,0.02
2013-4-30,40,32,20,-100,-100,-100,0,0,100,0.00,40.00,0,-999,0,0.00
2013-5-1,43,32,25,-100,-100,-100,0,0,100,0.00,40.00,0,-999,0,0.00
2013-5-2,50,34,14,-100,-100,-100,0,0,100,0.00,40.00,0,-999,0,0.00
2013-5-3,54,40,26,-100,-100,-100,0,0,100,0.00,40.00,0,-999,0,0.00
2013-5-4,50,40,31,-100,-100,-100,0,0,100,0.00,40.00,0,-999,0,0.00
2013-5-5,57,41,28,-100,-100,-100,0,0,100,0.00,40.00,0,-999,0,0.00
2013-5-6,61,43,27,-100,-100,-100,0,0,100,0.00,40.00,0,-999,0,0.00
2013-5-7,62,44,28,-100,-100,-100,0,0,100,0.00,40.00,0,-999,0,0.00
2013-5-8,63,46,29,-100,-100,-100,0,0,100,0.00,40.00,0,-999,0,0.00
2013-5-9,62,44,29,-100,-100,-100,0,0,100,0.00,40.00,0,-999,0,0.00
2013-5-10,63,45,29,-100,-100,-100,0,0,100,0.00,40.00,0,-999,0,0.00
2013-5-11,64,44,28,-100,-100,-100,0,0,100,0.00,40.00,0,-999,0,0.00
2013-5-12,72,50,31,-100,-100,-100,0,0,100,0.00,40.00,0,-999,0,0.00
2013-5-13,74,55,33,-100,-100,-100,0,0,100,0.00,40.00,0,-999,0,0.00
2013-5-14,68,56,42,-100,-100,-100,0,0,100,0.00,40.00,0,-999,0,0.02
2013-5-15,70,47,30,-100,-100,-100,0,0,100,0.00,40.00,0,-999,0,0.01
2013-5-16,61,46,36,-100,-100,-100,0,0,100,0.00,40.00,0,-999,0,0.01
2013-5-17,48,45,42,-100,-100,-100,0,0,100,0.00,40.00,0,-999,0,0.01
2013-5-18,50,43,39,-100,-100,-100,0,0,100,0.00,40.00,0,-999,0,0.01
2013-5-19,49,41,37,-100,-100,-100,0,0,100,0.00,40.00,0,-999,0,0.01
2013-5-20,56,44,37,-100,-100,-100,0,0,100,0.00,40.00,0,-999,0,0.01
2013-5-21,59,44,29,-100,-100,-100,0,0,100,0.00,40.00,0,-999,0,0.01
2013-5-22,64,48,34,-100,-100,-100,0,0,100,0.00,40.00,0,-999,0,0.01
2013-5-23,59,46,36,-100,-100,-100,0,0,100,0.00,40.00,0,-999,0,0.01
2013-5-24,55,42,33,-100,-100,-100,0,0,100,0.00,40.00,0,-999,0,0.01
2013-5-25,62,47,29,-100,-100,-100,0,0,100,0.00,40.00,0,-999,0,0.01
2013-5-26,61,46,30,-100,-100,-100,0,0,100,0.00,40.00,0,-999,0,0.01
2013-5-27,56,45,33,-100,-100,-100,0,0,100,0.00,40.00,0,-999,0,0.01
2013-5-28,53,45,39,-100,-100,-100,0,0,100,0.00,40.00,0,-999,0,0.01
2013-5-29,51,44,40,-100,-100,-100,0,0,100,0.00,40.00,0,-999,0,0.00
2013-5-30,53,43,34,-100,-100,-100,0,0,100,0.00,40.00,0,-999,0,0.00
2013-5-31,54,42,31,-100,-100,-100,0,0,100,0.00,40.00,0,-999,0,0.00
2013-6-1,63,45,24,-100,-100,-100,0,0,100,0.00,40.00,0,-999,0,0.03
2013-6-2,68,51,30,-100,-100,-100,0,0,100,0.00,40.00,0,-999,0,0.01
2013-6-3,58,46,33,-100,-100,-100,0,0,100,0.00,40.00,0,-999,0,0.01
2013-6-4,55,46,36,-100,-100,-100,0,0,100,0.00,40.00,0,-999,0,0.01
2013-6-5,68,47,25,-100,-100,-100,0,0,100,0.00,40.00,0,-999,0,0.02
2013-6-6,70,54,32,-100,-100,-100,0,0,100,0.00,40.00,0,-999,0,0.01
2013-6-7,71,52,33,-100,-100,-100,0,0,100,0.00,40.00,0,-999,0,0.00
2013-6-8,73,58,37,-100,-100,-100,0,0,100,0.00,40.00,0,-999,0,0.01
2013-6-9,74,58,36,-100,-100,-100,0,0,100,0.00,40.00,0,-999,0,0.00
2013-6-10,78,61,44,-100,-100,-100,0,0,100,0.00,40.00,0,-999,0,0.01
2013-6-11,68,55,39,-100,-100,-100,0,0,100,0.00,40.00,0,-999,0,0.00
2013-6-12,65,52,41,-100,-100,-100,0,0,100,0.00,40.00,0,-999,0,0.03
2013-6-13,68,53,41,-100,-100,-100,0,0,100,0.00,40.00,0,-999,0,0.01
2013-6-14,49,40,33,-100,-100,-100,0,0,100,0.00,40.00,0,-999,0,0.01
2013-6-15,68,48,32,-100,-100,-100,0,0,100,0.00,40.00,0,-999,0,0.01
2013-6-16,73,53,29,-100,-100,-100,0,0,100,0.00,40.00,0,-999,0,0.00
2013-6-17,76,61,33,-100,-100,-100,0,0,100,0.00,40.00,0,-999,0,0.00
2013-6-18,79,62,38,-100,-100,-100,0,0,100,0.00,40.00,0,-999,0,0.01
2013-6-19,68,50,40,-100,-100,-100,0,0,100,0.00,40.00,0,-999,0,0.01
2013-6-20,51,40,37,-100,-100,-100,0,0,100,0.00,40.00,0,-999,0,0.01
2013-6-24,68,60,48,-100,-100,-100,0,0,100,0.00,40.00,0,-999,0,0.00
2013-6-25,59,50,47,-100,-100,-100,0,0,100,0.00,40.00,0,-999,0,0.01
2013-6-26,68,58,48,-100,-100,-100,0,0,100,0.00,40.00,0,-999,0,0.01
2013-6-27,79,59,39,-100,-100,-100,0,0,100,0.00,40.00,0,-999,0,0.00
2013-6-28,85,66,41,-100,-100,-100,0,0,100,0.00,40.00,0,-999,0,0.00
2013-6-29,85,66,46,-100,-100,-100,0,0,100,0.00,40.00,0,-999,0,0.01
2013-6-30,83,66,42,-100,-100,-100,0,0,100,0.00,40.00,0,-999,0,0.01
2013-7-1,85,75,52,-100,-100,-100,0,0,100,0.00,40.00,0,-999,0,0.00
2013-7-2,85,76,52,-100,-100,-100,0,0,100,0.00,40.00,0,-999,0,0.00
2013-7-3,86,67,47,-100,-100,-100,0,0,100,0.00,40.00,0,-999,0,0.01
2013-7-4,81,63,45,-100,-100,-100,0,0,100,0.00,40.00,0,-999,0,0.00
2013-7-5,70,59,47,-100,-100,-100,0,0,100,0.00,40.00,0,-999,0,0.00
2013-7-6,72,54,43,-100,-100,-100,0,0,100,0.00,40.00,0,-999,0,0.03
2013-7-7,76,59,43,-100,-100,-100,0,0,100,0.00,40.00,0,-999,0,0.02
2013-7-8,70,51,39,-100,-100,-100,0,0,100,0.00,40.00,0,-999,0,0.01
2013-7-9,78,60,38,-100,-100,-100,0,0,100,0.00,40.00,0,-999,0,0.01
2013-7-10,83,64,38,-100,-100,-100,0,0,100,0.00,40.00,0,-999,0,0.00
2013-7-11,75,62,50,-100,-100,-100,0,0,100,0.00,40.00,0,-999,0,0.00
2013-7-12,74,58,43,-100,-100,-100,0,0,100,0.00,40.00,0,-999,0,0.01
2013-7-13,75,60,38,-100,-100,-100,0,0,100,0.00,40.00,0,-999,0,0.01
2013-7-14,78,61,39,-100,-100,-100,0,0,100,0.00,40.00,0,-999,0,0.00
2013-7-15,82,63,41,-100,-100,-100,0,0,100,0.00,40.00,0,-999,0,0.00
2013-7-16,73,60,45,-100,-100,-100,0,0,100,0.00,40.00,0,-999,0,0.00
2013-7-17,79,62,51,-100,-100,-100,0,0,100,0.00,40.00,0,-999,0,0.02
2013-7-18,80,63,45,-100,-100,-100,0,0,100,0.00,40.00,0,-999,0,0.00
2013-7-19,82,66,39,-100,-100,-100,0,0,100,0.00,40.00,0,-999,0,0.00
2013-7-20,82,66,38,-100,-100,-100,0,0,100,0.00,40.00,0,-999,0,0.00
2013-7-21,81,65,36,-100,-100,-100,0,0,100,0.00,40.00,0,-999,0,0.01
2013-7-22,82,65,37,-100,-100,-100,0,0,100,0.00,40.00,0,-999,0,0.00
2013-7-23,82,75,52,-100,-100,-100,0,0,100,0.00,40.00,0,-999,0,0.00
2013-7-24,83,74,56,-100,-100,-100,0,0,100,0.00,40.00,0,-999,0,0.00
2013-7-25,79,64,41,-100,-100,-100,0,0,100,0.00,40.00,0,-999,0,0.00
2013-7-26,82,62,39,-100,-100,-100,0,0,100,0.00,40.00,0,-999,0,0.00
2013-7-27,70,60,43,-100,-100,-100,0,0,100,0.00,40.00,0,-999,0,0.00
2013-7-28,72,54,39,-100,-100,-100,0,0,100,0.00,40.00,0,-999,0,0.00
2013-7-29,72,56,36,-100,-100,-100,0,0,100,0.00,40.00,0,-999,0,0.02
2013-7-30,73,53,37,-100,-100,-100,0,0,100,0.00,40.00,0,-999,0,0.01
2013-7-31,79,61,34,-100,-100,-100,0,0,100,0.00,40.00,0,-999,0,0.01
2013-8-1,80,67,51,-100,-100,-100,0,0,100,0.00,40.00,0,-999,0,0.01
2013-8-2,68,59,47,-100,-100,-100,0,0,100,0.00,40.00,0,-999,0,0.00
2013-8-3,75,56,32,-100,-100,-100,0,0,100,0.00,40.00,0,-999,0,0.01
2013-8-4,80,66,32,-100,-100,-100,0,0,100,0.00,40.00,0,-999,0,0.00
2013-8-5,81,60,35,-100,-100,-100,0,0,100,0.00,40.00,0,-999,0,0.00
2013-8-6,76,66,36,-100,-100,-100,0,0,100,0.00,40.00,0,-999,0,0.00
2013-8-7,81,70,50,-100,-100,-100,0,0,100,0.00,40.00,0,-999,0,0.00
2013-8-8,80,64,37,-100,-100,-100,0,0,100,0.00,40.00,0,-999,0,0.00
2013-8-27,71,56,43,-100,-100,-100,0,0,100,0.00,40.00,0,-999,0,0.02
2013-8-28,70,70,69,-100,-100,-100,0,0,100,0.00,40.00,0,-999,0,0.00
2013-8-29,76,57,40,-100,-100,-100,0,0,100,0.00,40.00,0,-999,0,0.00
2013-8-30,80,66,47,-100,-100,-100,0,0,100,0.00,40.00,0,-999,0,0.00
2013-8-31,77,59,38,-100,-100,-100,0,0,100,0.00,40.00,0,-999,0,0.00
2013-9-1,81,73,56,-100,-100,-100,0,0,100,0.00,40.00,0,-999,0,0.01
2013-9-2,63,58,48,-100,-100,-100,0,0,100,0.00,40.00,0,-999,0,0.00
2013-9-3,76,54,42,-100,-100,-100,0,0,100,0.00,40.00,0,-999,0,0.01
2013-9-4,71,57,51,-100,-100,-100,0,0,100,0.00,40.00,0,-999,0,0.01
2013-9-5,75,65,48,-100,-100,-100,0,0,100,0.00,40.00,0,-999,0,0.00
2013-9-6,75,61,47,-100,-100,-100,0,0,100,0.00,40.00,0,-999,0,0.00
2013-9-17,52,47,39,-100,-100,-100,0,0,100,0.00,40.00,0,-999,0,0.02
2013-9-18,43,39,35,-100,-100,-100,0,0,100,0.00,40.00,0,-999,0,0.00
2013-9-19,52,38,31,-100,-100,-100,0,0,100,0.00,40.00,0,-999,0,0.01
2013-9-20,62,42,25,-100,-100,-100,0,0,100,0.00,40.00,0,-999,0,0.01
2013-9-21,66,42,29,-100,-100,-100,0,0,100,0.00,40.00,0,-999,0,0.01
2013-9-22,56,48,39,-100,-100,-100,0,0,100,0.00,40.00,0,-999,0,0.01
2013-9-23,54,43,37,-100,-100,-100,0,0,100,0.00,40.00,0,-999,0,0.00
2013-9-24,55,44,35,-100,-100,-100,0,0,100,0.00,40.00,0,-999,0,0.00
2013-9-25,44,40,35,-100,-100,-100,0,0,100,0.00,40.00,0,-999,0,0.00
2013-9-26,42,37,33,-100,-100,-100,0,0,100,0.00,40.00,0,-999,0,0.01
2013-9-27,42,36,32,-100,-100,-100,0,0,100,0.00,40.00,0,-999,0,0.01
2013-10-2,49,40,29,-100,-100,-100,0,0,100,0.00,40.00,0,-999,0,0.01
2013-10-3,35,33,31,-100,-100,-100,0,0,100,0.00,40.00,0,-999,0,0.01
2013-10-4,38,31,26,-100,-100,-100,0,0,100,0.00,40.00,0,-999,0,0.01
2013-10-5,43,34,19,-100,-100,-100,0,0,100,0.00,40.00,0,-999,0,0.01
2013-10-6,51,32,23,-100,-100,-100,0,0,100,0.00,40.00,0,-999,0,0.00
2013-10-7,56,36,23,-100,-100,-100,0,0,100,0.00,40.00,0,-999,0,0.00
2013-10-8,45,41,32,-100,-100,-100,0,0,100,0.00,40.00,0,-999,0,0.02
2013-10-9,45,30,21,-100,-100,-100,0,0,100,0.00,40.00,0,-999,0,0.00
2013-10-10,33,32,31,-100,-100,-100,0,0,100,0.00,40.00,0,-999,0,0.00
2013-10-11,43,36,31,-100,-100,-100,0,0,100,0.00,40.00,0,-999,0,0.00
2013-10-12,37,31,26,-100,-100,-100,0,0,100,0.00,40.00,0,-999,0,0.00
2013-10-13,36,34,32,-100,-100,-100,0,0,100,0.00,40.00,0,-999,0,0.02
2013-11-14,31,28,24,-100,-100,-100,0,0,100,0.00,40.00,0,-999,0,0.00
2013-11-15,27,27,27,-100,-100,-100,0,0,100,0.00,40.00,0,-999,0,0.00
2013-11-16,26,26,26,-100,-100,-100,0,0,100,0.00,40.00,0,-999,0,0.00
2013-11-17,27,27,27,-100,-100,-100,0,0,100,0.00,40.00,0,-999,0,0.00
2013-11-18,30,30,29,-100,-100,-100,0,0,100,0.00,40.00,0,-999,0,0.00
2013-11-19,35,34,34,-100,-100,-100,0,0,100,0.00,40.00,0,-999,0,0.00
2013-11-24,15,14,13,-100,-100,-100,0,0,100,0.00,40.00,0,-999,0,0.00
2013-11-25,5,5,5,-100,-100,-100,0,0,100,0.00,40.00,0,-999,0,0.00
2013-11-26,24,24,24,-100,-100,-100,0,0,100,0.00,40.00,0,-999,0,0.00
2013-11-27,20,17,13,-100,-100,-100,0,0,100,0.00,40.00,0,-999,0,0.00
2013-11-28,18,14,9,-100,-100,-100,0,0,100,0.00,40.00,0,-999,0,0.00
2013-11-29,29,17,5,-100,-100,-100,0,0,100,0.00,40.00,0,-999,0,0.00
2013-11-30,32,31,29,-100,-100,-100,0,0,100,0.00,40.00,0,-999,0,0.00
2013-12-14,22,20,19,-100,-100,-100,0,0,100,0.00,40.00,0,-999,0,0.00
2013-12-15,27,25,23,-100,-100,-100,0,0,100,0.00,40.00,0,-999,0,0.00
2013-12-16,30,28,25,-100,-100,-100,0,0,100,0.00,40.00,0,-999,0,0.00
2013-12-17,22,16,8,-100,-100,-100,0,0,100,0.00,40.00,0,-999,0,0.00
2013-12-18,30,30,29,-100,-100,-100,0,0,100,0.00,40.00,0,-999,0,0.00
2013-12-19,24,22,17,-100,-100,-100,0,0,100,0.00,40.00,0,-999,0,0.00
2013-12-25,23,22,20,-100,-100,-100,0,0,100,0.00,40.00,0,-999,0,0.00
2013-12-26,29,21,16,-100,-100,-100,0,0,100,0.00,40.00,0,-999,0,0.00
2013-12-28,26,26,26,-100,-100,-100,0,0,100,0.00,40.00,0,-999,0,0.00
2013-12-31,25,24,24,-100,-100,-100,0,0,100,0.00,40.00,0,-999,0,0.01
2014-1-1,25,22,21,-100,-100,-100,0,0,100,0.00,40.00,0,-999,0,0.01
2014-1-2,28,22,19,-100,-100,-100,0,0,100,0.00,40.00,0,-999,0,0.00